STARLINK-2256 (48598 NORAD) Tracking and Keplerian Element Data

This shows tracking and keplerian element data for the satellite.

Feedback or suggestion? Click here.




ElementValue
Catalog48598
NameSTARLINK-2256
Epoch Orbit358
Epoch Day214.91667824
Epoch Year2021
RAAN122.4043
Inclination53.0552
Eccentricity0.0001741
Argument of Perigee76.6063
Mean Anonmoly37.2587
Mean Motion15.0640322
Decay Rate-0.00031542
L11 48598U 21041AX 21214.91667824 -.00031542 00000-0 -21078-2 0 9992
L22 48598 53.0552 122.4043 0001741 76.6063 37.2587 15.06403220 3584

Live tracking and technical data element details for STARLINK-2256 (NORAD 48598). STARLINK-2256 can be tracked NOW for your location showing map with azimuth and elevation plus other details from your city location.

Track the satellite on the map from your city or location and see movement details for azimuth, elevation, latitude, longitude, range, height, and movement on the map or in text.







IsCatalogInMostPopularTable: catalog: 48598, numindb: 22
Update: records affected: 1



GetName: 48598 STARLINK-2256

Hit Count: updated at: Wed, 04 Aug 2021 00:38:58 GMT